Regional Weather Roundup
Issued by NWS

Home | Current Version | Previous Version | Text Only | Print | Product List | Glossary Off
Versions: 1 2 3 4 5 6 7 8 9 10 11 12 13 14 15 16 17 18 19 20 21 22 23 24 25 26 27 28 29 30 31 32 33 34 35 36 37 38 39 40 41 42 43 44 45 46 47 48 49 50

000
ASUS43 KLOT 250108
RWRIL

ILLINOIS REGIONAL WEATHER ROUNDUP
NATIONAL WEATHER SERVICE CHICAGO/ROMEOVILLE IL
800 PM CDT WED AUG 24 2016

NOTE: "FAIR" INDICATES FEW OR NO CLOUDS BELOW 12,000 FEET WITH NO
SIGNIFICANT WEATHER AND/OR OBSTRUCTIONS TO VISIBILITY.

* THESE STATIONS ARE NOT UNDER NWS QUALITY CONTROL. THEY ALSO MAY NOT
  REPORT WEATHER SUCH AS PRECIPITATION OR FOG.

ILZ001-002-007-009-015-016-024-250200-
NORTHWEST ILLINOIS

CITY           SKY/WX    TMP DP  RH WIND       PRES   REMARKS
MOLINE         CLOUDY    81  71  71 CALM      29.95S HX  85
STERLING*      CLOUDY    75  73  93 CALM      29.96S
SAVANNA*       CLOUDY    79  70  74 CALM      29.94S HX  81
$$

ILZ003-004-008-010-011-017-018-250200-
NORTH CENTRAL ILLINOIS

CITY           SKY/WX    TMP DP  RH WIND       PRES   REMARKS
ROCKFORD       MOCLDY    80  71  74 SW3       29.96R HX  84
FREEPORT*      PTCLDY    77  69  77 SW7       29.97S
ROCHELLE*      CLEAR     74  73  94 S5        29.97R
DE KALB*       CLEAR     78  73  85 SW6       29.98S HX  80
$$

ILZ005-006-012>014-019>023-250200-
NORTHEAST ILLINOIS

CITY           SKY/WX    TMP DP  RH WIND       PRES   REMARKS
CHICAGO-OHARE  MOCLDY    79  72  79 W8        29.96R HX  82
CHICAGO-MIDWAY MOCLDY    82  71  69 SW7       29.95R HX  86
AURORA         CLEAR     79  72  79 SW6       29.97R HX  82
LANSING*       PTCLDY    77  70  80 SW5       29.97R
JOLIET*        CLEAR     80  74  80 SW3       29.97S HX  84
WAUKEGAN       CLEAR     78  72  81 VRB3      29.93R HX  80
DUPAGE AIRPORT CLEAR     78  71  79 SW6       29.96R HX  80
KANKAKEE*      CLEAR     74  71  90 S5        30.00R
WHEELING       CLEAR     81  71  71 W3        29.96R HX  85
MORRIS*        CLEAR     76  72  87 SW3       29.97R
ROMEOVILLE*    PTCLDY    77  70  78 W6        29.97S
NORTHERLY ISL    N/A     81  69  67 W6          N/A  HX  84
$$

LMZ740>746-250200-
SOUTHERN LAKE MICHIGAN

STATION/POSITION SKY/WX   TEMP    WIND        PRES    VSBY  WAVE
                          AIR SEA DIR/SP/G                  HT/PER
                          (F)     (DEG/KT/KT) (MB)    (MI)  (FT/S)
SOUTHERN BUOY              75 75  180/  8/ 10 1012.8R         2/ 5
WILMETTE HARBOR            74 69  270/  4/  4   N/A           1
HARRISON CRIB              83     260/ 12/ 13   N/A
BURNHAM HARBOR             81     270/  7/ 11   N/A
CALUMET HARBOR             82     230/  5/  9 1013.7R
BURNS HARBOR               80     230/  8/ 13 1014.9R
MICHIGAN CITY              77     210/ 12/ 13   N/A
MICHIGAN CITY 6N           76 73  230/  8/ 10   N/A           1/ 3
ST. JOSEPH                 76 75  230/  8/ 10 1014.1R         1/ 3
$$

ILZ025>027-034>036-040-047-049-050-058-095>099-250200-
WEST-CENTRAL ILLINOIS

CITY           SKY/WX    TMP DP  RH WIND       PRES   REMARKS
QUINCY         CLEAR     80  75  84 SW3       29.98R HX  85
GALESBURG*     CLOUDY    78  73  85 CALM      29.97S
MACOMB*        PTCLDY    78  75  91 S3        29.99S HX  80
JACKSONVILLE*  PTCLDY    80  75  83 S5        29.98S HX  86
PITTSFIELD*    CLEAR     82  75  78 S3        30.00S HX  89
$$

ILZ028>032-037-038-041>044-048-051>054-059>061-250200-
CENTRAL ILLINOIS

CITY           SKY/WX    TMP DP  RH WIND       PRES   REMARKS
PONTIAC        PTCLDY    75  73  95 CALM      30.00R
BLOOMINGTON    CLOUDY    78  72  81 SW3       30.01S HX  80
DECATUR        CLEAR     83  73  72 SW3       30.01S HX  89
PEORIA         CLOUDY    81  73  76 CALM      29.98S HX  86
LACON*         CLOUDY    76  71  83 CALM      29.97S
LINCOLN*       CLEAR     82  77  86 CALM      29.99S HX  89
SPRINGFIELD    PTCLDY    82  75  79 S6        29.99S HX  89
TAYLORVILLE    PTCLDY    80  74  83 CALM      30.01S HX  84
$$

ILZ033-039-045-046-055>057-062-063-250200-
EAST-CENTRAL ILLINOIS

CITY           SKY/WX    TMP DP  RH WIND       PRES   REMARKS
CHAMPAIGN      PTCLDY    77  74  90 SW6       30.02R
RANTOUL*       MOCLDY    78  74  88 SW3       30.01R HX  81
MATTOON        CLOUDY    82  76  81 S3        30.02R HX  89
PARIS*         CLEAR     78  77  94 CALM      30.03R HX  82
$$

ILZ079-100>102-250200-
SOUTHWEST ILLINOIS

CITY           SKY/WX    TMP DP  RH WIND       PRES   REMARKS
ALTON          PTCLDY    82  73  74 W5        30.00S HX  88
BELLEVILLE     PTCLDY    81  73  76 S7        29.99S HX  86
CAHOKIA*       PTCLDY    84  75  74 SE5       29.99S HX  92
SPARTA*        CLOUDY    84  77  79 S7        30.03R HX  93
$$

ILZ064>066-069>071-074>076-080>082-084>086-088>090-092>094-250200-
SOUTH-CENTRAL ILLINOIS

CITY           SKY/WX    TMP DP  RH WIND       PRES   REMARKS
CARBONDALE     CLEAR     79  74  84 S7        30.04R HX  82
CAIRO*         CLEAR     82  77  83 S7        30.05S HX  91
EFFINGHAM*     PTCLDY    79  79 100 CALM      30.04R FOG     HX  85
MARION         CLEAR     84  77  79 SW7       30.05R HX  94
MT. VERNON     CLEAR     81  72  74 SW3       30.03S HX  84
CENTRALIA*     CLOUDY    83  78  84 S7        30.01S HX  93
SALEM*         PTCLDY    85  77  76 S7        30.02R HX  95
METROPOLIS*    CLEAR     83  75  76 SW3       30.07R HX  91
$$

ILZ067-068-072-073-078-083-087-091-250200-
SOUTHEAST ILLINOIS

CITY           SKY/WX    TMP DP  RH WIND       PRES   REMARKS
LAWRENCEVILLE  CLEAR     81  77  88 S7        30.04R HX  88
FLORA*         MOCLDY    83  77  82 S6        30.03S HX  93
FAIRFIELD*     CLEAR     81  76  86 S3        30.03R HX  87
HARRISBURG*    CLEAR     82  77  85 S5        30.05R HX  89
ROBINSON*      CLOUDY    78  76  94 S5        30.04R
CARMI*         CLEAR     80  76  88 S6        30.04S HX  86
$$

ABBREVIATIONS USED IN REMARKS
   TC - TEMPERATURE IN CELSIUS
  WCI - WIND CHILL INDEX
   HX - HEAT INDEX
  VSB - VISIBILITY
$$





USA.gov is the U.S. government's official web portal to all federal, state and local government web resources and services.